Retour au catalogue

FENGYUN 1C DEB

ActifSSO
NORAD 30381·DEBRIS·🇨🇳 China

Lancé May 10, 1999 depuis Taiyuan Satellite Launch Center

Loading…

Prochains Passages (prochaines 24 heures)

TLE

FraisSource: Space-Track

Époque: Sep 12, 2026, 00:50 UTC

1 30381U 99025ACU 26255.03507021  .00001121  00000-0  60599-3 0  9995
2 30381  98.7920 290.6284 0054243  19.6068 340.7174 14.13886002960274

Suivez FENGYUN 1C DEB en temps réel avec AllMySat

Download on the App Store